Location: Buch
(50.1863°N, 11.0141°E)
Time: 16:00:28
(UTC+00:00)

FALCON 9 DEB - Pass Details

Date: 18 January 2020
Orbit: 429 x 444 km, 53.0° (Epoch: 19 February)

Event Time Altitude Azimuth Distance (km) Brightness Sun altitude
Exits shadow 05:54:10 18° 293° (WNW) 1,157 4.6 -11.4°
Maximum altitude 05:56:34 54° 6° (N) 546 3.5 -11.0°
Drops below altitude 10° 06:00:02 10° 86° (E) 1,568 7.1 -10.5°
Sets 06:02:12 0° 91° (E) 2,439 8.5 -10.2°
